Location: Schommer Observatory
(40.5200°N, 74.4500°W)
Time: 10:24:34
(UTC-04:00)

ISS - Pass Details

Date: 07 October 2017
Orbit: 401 x 408 km, 51.6° (Epoch: 20 October)

Event Time Altitude Azimuth Distance (km) Brightness Sun altitude
Rises 20:41:52 0° 312° (NW) 2,329 1.0 -25.8°
Reaches altitude 10° 20:44:13 10° 328° (NNW) 1,469 -0.4 -26.2°
Enters shadow 20:44:59 14° 337° (NNW) 1,234 -1.0 -26.3°
